Du Bois, PA

6:49 AM EST on December 12, 2019 (GMT -0500)
Du Bois-Jefferson County

Weather History for KDUJ - October, 2019

Change the Weather History Date:

Saturday, October 19, 2019

  Actual Average Record
Temperature  
Mean Temperature 44 °F 48 °F  
Max Temperature 60 °F 58 °F 77 °F (1963)
Min Temperature 28 °F 39 °F 20 °F (1974)
Degree Days  
Heating Degree Days 21 17  
Month to date heating degree days 251 271  
Since 1 July heating degree days 354 517  
Cooling Degree Days 0 0  
Month to date cooling degree days 23 0  
Year to date cooling degree days 430 360  
Moisture  
Dew Point 34 °F    
Average Humidity 76    
Maximum Humidity 96    
Minimum Humidity 45    
Precipitation  
Precipitation 0.00 in 0.09 in 0.87 in (1996)
Month to date precipitation 2.64 1.92  
Year to date precipitation 39.04 35.16  
Sea Level Pressure  
Sea Level Pressure 30.03 in    
Wind  
Wind Speed 4 mph ()    
Max Wind Speed 12 mph    
Max Gust Speed 16 mph    
Visibility 7.3 miles    
Events Fog    
T = Trace of Precipitation, MM = Missing Value Source: Averaged Metar Reports

Daily Weather History Graph

Daily Weather History Graph

Search for Another Location

Airport or City:

Astronomy

Oct. 19, 2019 Rise Set
Actual Time 7:31 AM EDT 6:29 PM EDT
Civil Twilight 7:03 AM EDT 6:57 PM EDT
Nautical Twilight 6:31 AM EDT 7:29 PM EDT
Astronomical Twilight 5:59 AM EDT 8:00 PM EDT
Moon 10:33 PM EDT (10/19) 1:04 PM EDT (10/19)
Length of Visible Light 11h 53m
Length of Day
10h 57m
Waning Gibbous, 70% of the Moon is Illuminated
Oct 19
Waning Gibbous
Oct 21
Last Quarter
Oct 27
New
Nov 4
First Quarter
Nov 12
Full

Hourly Weather History & Observations

Time (EDT) Temp. Windchill Dew Point Humidity Pressure Visibility Wind Dir Wind Speed Gust Speed Precip Events Conditions
12:53 AM 37.9 °F 35.5 °F 35.1 °F 89% 30.07 in 10.0 mi ENE 3.5 mph - N/A   Clear
1:53 AM 34.0 °F 28.8 °F 32.0 °F 92% 30.06 in 9.0 mi East 5.8 mph - N/A   Clear
2:53 AM 33.1 °F 30.0 °F 30.9 °F 92% 30.06 in 7.0 mi East 3.5 mph - N/A   Clear
3:53 AM 34.0 °F - 30.9 °F 89% 30.07 in 9.0 mi Calm Calm - N/A   Clear
4:53 AM 33.1 °F - 30.9 °F 92% 30.08 in 4.0 mi Calm Calm - N/A   Clear
5:23 AM 32.0 °F - 30.9 °F 96% 30.05 in 1.8 mi Calm Calm - N/A   Clear
5:33 AM 32.0 °F 28.7 °F 30.9 °F 96% 30.05 in 0.5 mi East 3.5 mph - N/A Fog Fog
5:50 AM 30.2 °F 24.3 °F 28.4 °F 93% 30.05 in 0.2 mi East 5.8 mph - N/A Fog Light Freezing Fog
5:53 AM 30.0 °F 24.1 °F 28.0 °F 92% 30.08 in 0.2 mi East 5.8 mph - N/A Fog Light Freezing Fog
6:09 AM 30.0 °F 25.2 °F 28.9 °F 96% 30.05 in 0.5 mi East 4.6 mph - N/A Fog Light Freezing Fog
6:42 AM 28.0 °F 22.8 °F 27.0 °F 96% 30.04 in 1.5 mi East 4.6 mph - N/A   Mostly Cloudy
6:53 AM 28.9 °F - 27.0 °F 92% 30.08 in 1.2 mi Calm Calm - N/A   Mostly Cloudy
7:00 AM 30.0 °F - 28.0 °F 92% 30.04 in 3.0 mi Calm Calm - N/A   Scattered Clouds
7:53 AM 30.9 °F 26.2 °F 28.9 °F 92% 30.10 in 10.0 mi ESE 4.6 mph - N/A   Clear
8:53 AM 34.0 °F 31.0 °F 33.1 °F 96% 30.10 in 10.0 mi East 3.5 mph - N/A   Clear
9:53 AM 39.9 °F 36.7 °F 36.0 °F 86% 30.09 in 10.0 mi East 4.6 mph - N/A   Clear
10:53 AM 46.9 °F - 37.9 °F 71% 30.08 in 10.0 mi ESE 4.6 mph - N/A   Clear
11:53 AM 50.0 °F - 36.0 °F 59% 30.07 in 10.0 mi SE 8.1 mph - N/A   Clear
12:53 PM 54.0 °F - 37.0 °F 53% 30.04 in 10.0 mi Variable 5.8 mph - N/A   Clear
1:53 PM 57.0 °F - 37.0 °F 47% 30.01 in 10.0 mi SE 5.8 mph - N/A   Clear
2:53 PM 57.0 °F - 36.0 °F 45% 29.99 in 10.0 mi ESE 9.2 mph - N/A   Clear
3:53 PM 57.9 °F - 37.9 °F 47% 29.98 in 10.0 mi SSE 9.2 mph - N/A   Clear
4:53 PM 57.9 °F - 39.0 °F 49% 29.96 in 10.0 mi ESE 6.9 mph - N/A   Clear
5:53 PM 55.9 °F - 37.9 °F 51% 29.96 in 10.0 mi ESE 3.5 mph - N/A   Clear
6:53 PM 53.1 °F - 37.9 °F 57% 29.97 in 10.0 mi ESE 8.1 mph - N/A   Clear
7:53 PM 51.1 °F - 39.0 °F 63% 29.96 in 10.0 mi ESE 8.1 mph - N/A   Clear
8:53 PM 48.9 °F - 37.9 °F 66% 29.96 in 10.0 mi SE 8.1 mph - N/A   Clear
9:53 PM 50.0 °F - 37.9 °F 63% 29.94 in 10.0 mi SE 8.1 mph - N/A   Clear
10:53 PM 48.9 °F - 37.9 °F 66% 29.93 in 10.0 mi SE 10.4 mph - N/A   Clear
11:53 PM 48.0 °F - 39.0 °F 71% 29.92 in 10.0 mi ESE 6.9 mph - N/A   Clear